Year,Month,Day,Hour,Minute,Value (Times are PST for temperature in C)
2018,04,26,00,00,12.50
2018,04,26,00,02,12.40
2018,04,26,00,03,12.40
2018,04,26,00,04,12.30
2018,04,26,00,05,12.30
2018,04,26,00,06,12.20
2018,04,26,00,07,12.20
2018,04,26,00,08,12.20
2018,04,26,00,09,12.10
2018,04,26,00,10,12.00
2018,04,26,00,11,11.90
2018,04,26,00,12,11.80
2018,04,26,00,13,11.80
2018,04,26,00,14,11.80
2018,04,26,00,15,11.70
2018,04,26,00,16,11.60
2018,04,26,00,17,11.60
2018,04,26,00,18,11.50
2018,04,26,00,19,11.40
2018,04,26,00,20,11.40
2018,04,26,00,21,11.30
2018,04,26,00,22,11.30
2018,04,26,00,23,11.30
2018,04,26,00,24,11.30
2018,04,26,00,25,11.20
2018,04,26,00,26,11.20
2018,04,26,00,27,11.20
2018,04,26,00,28,11.20
2018,04,26,00,29,11.20
2018,04,26,00,30,11.20
2018,04,26,00,31,11.30
2018,04,26,00,32,11.30
2018,04,26,00,33,11.30
2018,04,26,00,34,11.30
2018,04,26,00,35,11.30
2018,04,26,00,36,11.30
2018,04,26,00,37,11.30
2018,04,26,00,38,11.30
2018,04,26,00,39,11.30
2018,04,26,00,40,11.20
2018,04,26,00,41,11.10
2018,04,26,00,42,11.10
2018,04,26,00,43,11.00
2018,04,26,00,44,11.00
2018,04,26,00,45,10.90
2018,04,26,00,46,10.90
2018,04,26,00,47,10.80
2018,04,26,00,48,10.80
2018,04,26,00,49,10.80
2018,04,26,00,50,10.80
2018,04,26,00,51,10.80
2018,04,26,00,52,10.80
2018,04,26,00,53,10.80
2018,04,26,00,54,10.70
2018,04,26,00,55,10.70
2018,04,26,00,56,10.70
2018,04,26,00,57,10.70
2018,04,26,00,58,10.70
2018,04,26,00,59,10.70
2018,04,26,01,00,10.60
2018,04,26,01,01,10.60
2018,04,26,01,02,10.60
2018,04,26,01,03,10.60
2018,04,26,01,04,10.60
2018,04,26,01,05,10.50
2018,04,26,01,06,10.50
2018,04,26,01,07,10.50
2018,04,26,01,08,10.50
2018,04,26,01,09,10.50
2018,04,26,01,10,10.40
2018,04,26,01,11,10.40
2018,04,26,01,12,10.40
2018,04,26,01,13,10.40
2018,04,26,01,14,10.40
2018,04,26,01,15,10.40
2018,04,26,01,16,10.40
2018,04,26,01,17,10.40
2018,04,26,01,18,10.50
2018,04,26,01,19,10.50
2018,04,26,01,20,10.50
2018,04,26,01,21,10.70
2018,04,26,01,22,10.70
2018,04,26,01,23,10.80
2018,04,26,01,24,10.80
2018,04,26,01,25,10.80
2018,04,26,01,26,10.80
2018,04,26,01,27,10.80
2018,04,26,01,28,10.80
2018,04,26,01,29,10.70
2018,04,26,01,30,10.70
2018,04,26,01,31,10.60
2018,04,26,01,32,10.60
2018,04,26,01,33,10.50
2018,04,26,01,34,10.50
2018,04,26,01,35,10.50
2018,04,26,01,36,10.50
2018,04,26,01,37,10.40
2018,04,26,01,38,10.40
2018,04,26,01,39,10.40
2018,04,26,01,40,10.40
2018,04,26,01,41,10.30
2018,04,26,01,42,10.30
2018,04,26,01,43,10.30
2018,04,26,01,44,10.30
2018,04,26,01,45,10.30
2018,04,26,01,46,10.30
2018,04,26,01,47,10.30
2018,04,26,01,48,10.20
2018,04,26,01,49,10.20
2018,04,26,01,50,10.10
2018,04,26,01,51,10.10
2018,04,26,01,52,10.00
2018,04,26,01,53,10.00
2018,04,26,01,54,9.90
2018,04,26,01,55,9.90
2018,04,26,01,56,9.80
2018,04,26,01,57,9.80
2018,04,26,01,58,9.80
2018,04,26,02,00,9.90
2018,04,26,02,01,9.90
2018,04,26,02,02,9.90
2018,04,26,02,03,9.90
2018,04,26,02,05,10.00
2018,04,26,02,06,10.00
2018,04,26,02,08,10.00
2018,04,26,02,10,10.00
2018,04,26,02,12,10.00
2018,04,26,02,13,10.00
2018,04,26,02,15,10.10
2018,04,26,02,17,10.00
2018,04,26,02,18,10.00
2018,04,26,02,19,9.90
2018,04,26,02,20,9.90
2018,04,26,02,22,9.80
2018,04,26,02,23,9.80
2018,04,26,02,24,9.80
2018,04,26,02,25,9.80
2018,04,26,02,27,10.00
2018,04,26,02,28,10.00
2018,04,26,02,29,10.00
2018,04,26,02,30,10.00
2018,04,26,02,31,10.00
2018,04,26,02,32,10.00
2018,04,26,02,34,10.00
2018,04,26,02,35,10.00
2018,04,26,02,36,10.00
2018,04,26,02,37,10.00
2018,04,26,02,38,10.00
2018,04,26,02,39,10.00
2018,04,26,02,41,9.90
2018,04,26,02,42,9.90
2018,04,26,02,43,9.90
2018,04,26,02,44,9.80
2018,04,26,02,46,9.80
2018,04,26,02,47,9.80
2018,04,26,02,48,9.80
2018,04,26,02,49,9.80
2018,04,26,02,51,9.80
2018,04,26,02,52,9.70
2018,04,26,02,53,9.70
2018,04,26,02,54,9.70
2018,04,26,02,56,9.60
2018,04,26,02,57,9.60
2018,04,26,02,58,9.60
2018,04,26,02,59,9.60
2018,04,26,03,00,9.60
2018,04,26,03,01,9.60
2018,04,26,03,03,9.60
2018,04,26,03,04,9.60
2018,04,26,03,05,9.60
2018,04,26,03,06,9.60
2018,04,26,03,08,9.70
2018,04,26,03,09,9.70
2018,04,26,03,10,9.70
2018,04,26,03,11,9.70
2018,04,26,03,12,9.70
2018,04,26,03,13,9.70
2018,04,26,03,14,9.70
2018,04,26,03,15,9.80
2018,04,26,03,16,9.80
2018,04,26,03,17,9.80
2018,04,26,03,18,9.90
2018,04,26,03,20,10.00
2018,04,26,03,21,10.10
2018,04,26,03,22,10.20
2018,04,26,03,23,10.30
2018,04,26,03,24,10.30
2018,04,26,03,25,10.40
2018,04,26,03,26,10.50
2018,04,26,03,27,10.70
2018,04,26,03,28,10.80
2018,04,26,03,29,10.80
2018,04,26,03,30,11.00
2018,04,26,03,32,11.30
2018,04,26,03,33,11.30
2018,04,26,03,34,11.40
2018,04,26,03,35,11.50
2018,04,26,03,37,11.60
2018,04,26,03,38,11.70
2018,04,26,03,39,11.70
2018,04,26,03,40,11.80
2018,04,26,03,42,11.80
2018,04,26,03,43,11.80
2018,04,26,03,44,11.90
2018,04,26,03,45,11.90
2018,04,26,03,46,11.90
2018,04,26,03,47,11.90
2018,04,26,03,48,11.90
2018,04,26,03,49,11.90
2018,04,26,03,50,11.90
2018,04,26,03,51,11.80
2018,04,26,03,52,11.80
2018,04,26,03,53,11.80
2018,04,26,03,54,11.80
2018,04,26,03,56,11.70
2018,04,26,03,57,11.70
2018,04,26,03,58,11.60
2018,04,26,03,59,11.60
2018,04,26,04,00,11.50
2018,04,26,04,01,11.50
2018,04,26,04,03,11.40
2018,04,26,04,04,11.40
2018,04,26,04,05,11.40
2018,04,26,04,06,11.40
2018,04,26,04,07,11.40
2018,04,26,04,08,11.40
2018,04,26,04,10,11.40
2018,04,26,04,11,11.40
2018,04,26,04,12,11.50
2018,04,26,04,13,11.50
2018,04,26,04,15,11.60
2018,04,26,04,16,11.60
2018,04,26,04,17,11.60
2018,04,26,04,18,11.70
2018,04,26,04,19,11.70
2018,04,26,04,20,11.70
2018,04,26,04,21,11.70
2018,04,26,04,22,11.80
2018,04,26,04,23,11.80
2018,04,26,04,24,11.80
2018,04,26,04,25,11.80
2018,04,26,04,26,11.80
2018,04,26,04,27,11.80
2018,04,26,04,28,11.80
2018,04,26,04,29,11.80
2018,04,26,04,30,11.80
2018,04,26,04,31,11.80
2018,04,26,04,32,11.80
2018,04,26,04,33,11.80
2018,04,26,04,34,11.80
2018,04,26,04,35,11.80
2018,04,26,04,36,11.80
2018,04,26,04,37,11.80
2018,04,26,04,38,11.90
2018,04,26,04,39,11.90
2018,04,26,04,40,11.90
2018,04,26,04,41,11.90
2018,04,26,04,42,12.00
2018,04,26,04,43,12.00
2018,04,26,04,44,12.00
2018,04,26,04,45,12.00
2018,04,26,04,46,12.00
2018,04,26,04,47,12.10
2018,04,26,04,48,12.10
2018,04,26,04,49,12.10
2018,04,26,04,50,12.10
2018,04,26,04,51,12.10
2018,04,26,04,52,12.10
2018,04,26,04,53,12.10
2018,04,26,04,54,12.10
2018,04,26,04,55,12.10
2018,04,26,04,56,12.10
2018,04,26,04,57,12.10
2018,04,26,04,58,12.10
2018,04,26,04,59,12.10
2018,04,26,05,00,12.10
2018,04,26,05,01,12.20
2018,04,26,05,02,12.20
2018,04,26,05,03,12.20
2018,04,26,05,04,12.20
2018,04,26,05,05,12.20
2018,04,26,05,06,12.20
2018,04,26,05,07,12.20
2018,04,26,05,08,12.20
2018,04,26,05,09,12.20
2018,04,26,05,10,12.20
2018,04,26,05,11,12.20
2018,04,26,05,12,12.20
2018,04,26,05,13,12.20
2018,04,26,05,14,12.20
2018,04,26,05,15,12.20
2018,04,26,05,16,12.20
2018,04,26,05,17,12.20
2018,04,26,05,18,12.20
2018,04,26,05,19,12.20
2018,04,26,05,20,12.20
2018,04,26,05,21,12.20
2018,04,26,05,22,12.20
2018,04,26,05,23,12.20
2018,04,26,05,24,12.20
2018,04,26,05,25,12.20
2018,04,26,05,26,12.20
2018,04,26,05,27,12.20
2018,04,26,05,28,12.20
2018,04,26,05,29,12.20
2018,04,26,05,30,12.20
2018,04,26,05,31,12.20
2018,04,26,05,32,12.20
2018,04,26,05,33,12.20
2018,04,26,05,34,12.20
2018,04,26,05,35,12.20
2018,04,26,05,36,12.20
2018,04,26,05,37,12.20
2018,04,26,05,38,12.20
2018,04,26,05,39,12.20
2018,04,26,05,40,12.20
2018,04,26,05,41,12.20
2018,04,26,05,42,12.20
2018,04,26,05,43,12.10
2018,04,26,05,44,12.10
2018,04,26,05,45,12.10
2018,04,26,05,47,12.10
2018,04,26,05,48,12.10
2018,04,26,05,49,12.20
2018,04,26,05,50,12.20
2018,04,26,05,52,12.20
2018,04,26,05,54,12.20
2018,04,26,05,55,12.20
2018,04,26,05,57,12.20
2018,04,26,05,59,12.20
2018,04,26,06,00,12.20
2018,04,26,06,01,12.20
2018,04,26,06,02,12.20
2018,04,26,06,04,12.20
2018,04,26,06,05,12.30
2018,04,26,06,06,12.30
2018,04,26,06,07,12.30
2018,04,26,06,08,12.30
2018,04,26,06,09,12.30
2018,04,26,06,11,12.40
2018,04,26,06,12,12.40
2018,04,26,06,13,12.40
2018,04,26,06,14,12.30
2018,04,26,06,16,12.20
2018,04,26,06,17,12.20
2018,04,26,06,18,12.10
2018,04,26,06,19,11.90
2018,04,26,06,20,11.80
2018,04,26,06,21,11.80
2018,04,26,06,23,11.60
2018,04,26,06,25,11.40
2018,04,26,06,26,11.40
2018,04,26,06,27,11.30
2018,04,26,06,28,11.30
2018,04,26,06,30,11.30
2018,04,26,06,31,11.30
2018,04,26,06,32,11.30
2018,04,26,06,33,11.30
2018,04,26,06,35,11.30
2018,04,26,06,36,11.30
2018,04,26,06,37,11.30
2018,04,26,06,38,11.30
2018,04,26,06,39,11.30
2018,04,26,06,40,11.30
2018,04,26,06,42,11.40
2018,04,26,06,43,11.40
2018,04,26,06,44,11.50
2018,04,26,06,45,11.60
2018,04,26,06,47,11.70
2018,04,26,06,48,11.70
2018,04,26,06,49,11.80
2018,04,26,06,50,11.80
2018,04,26,06,52,11.80
2018,04,26,06,53,11.90
2018,04,26,06,54,11.90
2018,04,26,06,55,11.90
2018,04,26,06,57,12.00
2018,04,26,06,58,12.10
2018,04,26,06,59,12.10
2018,04,26,07,00,12.10
2018,04,26,07,01,12.10
2018,04,26,07,02,12.10
2018,04,26,07,04,12.10
2018,04,26,07,05,12.10
2018,04,26,07,06,12.10
2018,04,26,07,07,12.10
2018,04,26,07,09,12.10
2018,04,26,07,10,12.10
2018,04,26,07,11,12.00
2018,04,26,07,12,12.00
2018,04,26,07,14,12.00
2018,04,26,07,15,12.00
2018,04,26,07,16,11.90
2018,04,26,07,17,11.90
2018,04,26,07,19,11.90
2018,04,26,07,20,11.90
2018,04,26,07,21,11.90
2018,04,26,07,22,12.00
2018,04,26,07,24,12.00
2018,04,26,07,25,12.00
2018,04,26,07,26,12.00
2018,04,26,07,27,12.00
2018,04,26,07,28,12.00
2018,04,26,07,29,12.10
2018,04,26,07,31,12.10
2018,04,26,07,32,12.10
2018,04,26,07,33,12.10
2018,04,26,07,34,12.10
2018,04,26,07,36,12.10
2018,04,26,07,37,12.10
2018,04,26,07,38,12.20
2018,04,26,07,39,12.20
2018,04,26,07,40,12.20
2018,04,26,07,41,12.20
2018,04,26,07,43,12.20
2018,04,26,07,44,12.20
2018,04,26,07,45,12.30
2018,04,26,07,46,12.30
2018,04,26,07,47,12.40
2018,04,26,07,48,12.40
2018,04,26,07,50,12.50
2018,04,26,07,51,12.60
2018,04,26,07,52,12.60
2018,04,26,07,53,12.70
2018,04,26,07,54,12.70
2018,04,26,07,55,12.70
2018,04,26,07,56,12.70
2018,04,26,07,57,12.70
2018,04,26,07,58,12.70
2018,04,26,07,59,12.80
2018,04,26,08,00,12.80
2018,04,26,08,02,12.90
2018,04,26,08,03,12.90
2018,04,26,08,04,12.90
2018,04,26,08,05,12.90
2018,04,26,08,06,12.90
2018,04,26,08,07,13.00
2018,04,26,08,08,13.00
2018,04,26,08,09,13.00
2018,04,26,08,11,13.00
2018,04,26,08,12,13.00
2018,04,26,08,13,13.10
2018,04,26,08,14,13.10
2018,04,26,08,15,13.10
2018,04,26,08,16,13.10
2018,04,26,08,17,13.10
2018,04,26,08,18,13.20
2018,04,26,08,19,13.20
2018,04,26,08,20,13.20
2018,04,26,08,21,13.20
2018,04,26,08,22,13.20
2018,04,26,08,23,13.20
2018,04,26,08,24,13.20
2018,04,26,08,25,13.30
2018,04,26,08,26,13.30
2018,04,26,08,27,13.30
2018,04,26,08,28,13.40
2018,04,26,08,30,13.40
2018,04,26,08,31,13.40
2018,04,26,08,32,13.50
2018,04,26,08,33,13.50
2018,04,26,08,34,13.50
2018,04,26,08,35,13.60
2018,04,26,08,36,13.60
2018,04,26,08,37,13.60
2018,04,26,08,38,13.60
2018,04,26,08,39,13.70
2018,04,26,08,40,13.70
2018,04,26,08,41,13.70
2018,04,26,08,42,13.70
2018,04,26,08,43,13.70
2018,04,26,08,44,13.70
2018,04,26,08,45,13.80
2018,04,26,08,46,13.80
2018,04,26,08,47,13.90
2018,04,26,08,48,13.90
2018,04,26,08,49,13.90
2018,04,26,08,50,13.90
2018,04,26,08,51,14.10
2018,04,26,08,52,14.10
2018,04,26,08,53,14.10
2018,04,26,08,54,14.10
2018,04,26,08,55,14.20
2018,04,26,08,56,14.20
2018,04,26,08,57,14.30
2018,04,26,08,58,14.30
2018,04,26,08,59,14.40
2018,04,26,09,00,14.40
2018,04,26,09,01,14.40
2018,04,26,09,02,14.40
2018,04,26,09,03,14.50
2018,04,26,09,04,14.50
2018,04,26,09,05,14.50
2018,04,26,09,06,14.50
2018,04,26,09,07,14.50
2018,04,26,09,08,14.60
2018,04,26,09,09,14.60
2018,04,26,09,10,14.70
2018,04,26,09,11,14.70
2018,04,26,09,12,14.70
2018,04,26,09,13,14.70
2018,04,26,09,14,14.70
2018,04,26,09,15,14.70
2018,04,26,09,16,14.80
2018,04,26,09,17,14.80
2018,04,26,09,18,14.80
2018,04,26,09,19,14.90
2018,04,26,09,20,14.90
2018,04,26,09,21,15.00
2018,04,26,09,22,15.00
2018,04,26,09,23,15.00
2018,04,26,09,24,15.10
2018,04,26,09,25,15.10
2018,04,26,09,26,15.20
2018,04,26,09,27,15.20
2018,04,26,09,28,15.20
2018,04,26,09,29,15.20
2018,04,26,09,30,15.20
2018,04,26,09,31,15.20
2018,04,26,09,32,15.20
2018,04,26,09,33,15.20
2018,04,26,09,34,15.20
2018,04,26,09,35,15.20
2018,04,26,09,36,15.20
2018,04,26,09,37,15.30
2018,04,26,09,38,15.30
2018,04,26,09,39,15.40
2018,04,26,09,40,15.50
2018,04,26,09,41,15.50
2018,04,26,09,42,15.60
2018,04,26,09,43,15.60
2018,04,26,09,44,15.70
2018,04,26,09,45,15.70
2018,04,26,09,46,15.70
2018,04,26,09,47,15.70
2018,04,26,09,48,15.70
2018,04,26,09,49,15.60
2018,04,26,09,50,15.70
2018,04,26,09,51,15.70
2018,04,26,09,52,15.60
2018,04,26,09,53,15.60
2018,04,26,09,54,15.70
2018,04,26,09,55,15.70
2018,04,26,09,56,15.70
2018,04,26,09,57,15.70
2018,04,26,09,58,15.70
2018,04,26,09,59,15.70
2018,04,26,10,00,15.70
2018,04,26,10,01,15.70
2018,04,26,10,02,15.70
2018,04,26,10,04,15.70
2018,04,26,10,05,15.70
2018,04,26,10,06,15.70
2018,04,26,10,07,15.70
2018,04,26,10,08,15.70
2018,04,26,10,09,15.70
2018,04,26,10,10,15.70
2018,04,26,10,12,15.60
2018,04,26,10,14,15.60
2018,04,26,10,15,15.60
2018,04,26,10,17,15.60
2018,04,26,10,19,15.70
2018,04,26,10,20,15.70
2018,04,26,10,21,15.70
2018,04,26,10,22,15.70
2018,04,26,10,24,15.80
2018,04,26,10,25,15.80
2018,04,26,10,26,15.80
2018,04,26,10,27,15.80
2018,04,26,10,28,15.90
2018,04,26,10,29,15.90
2018,04,26,10,31,16.00
2018,04,26,10,32,16.10
2018,04,26,10,33,16.10
2018,04,26,10,34,16.20
2018,04,26,10,36,16.20
2018,04,26,10,37,16.30
2018,04,26,10,38,16.30
2018,04,26,10,39,16.20
2018,04,26,10,40,16.20
2018,04,26,10,41,16.30
2018,04,26,10,43,16.30
2018,04,26,10,44,16.30
2018,04,26,10,45,16.30
2018,04,26,10,46,16.30
2018,04,26,10,47,16.30
2018,04,26,10,48,16.30
2018,04,26,10,50,16.30
2018,04,26,10,51,16.30
2018,04,26,10,52,16.40
2018,04,26,10,53,16.40
2018,04,26,10,54,16.40
2018,04,26,10,55,16.40
2018,04,26,10,56,16.40
2018,04,26,10,57,16.40
2018,04,26,10,58,16.30
2018,04,26,11,00,16.30
2018,04,26,11,01,16.30
2018,04,26,11,02,16.30
2018,04,26,11,03,16.30
2018,04,26,11,05,16.20
2018,04,26,11,06,16.20
2018,04,26,11,07,16.20
2018,04,26,11,08,16.30
2018,04,26,11,10,16.30
2018,04,26,11,11,16.30
2018,04,26,11,12,16.20
2018,04,26,11,13,16.20
2018,04,26,11,14,16.10
2018,04,26,11,15,16.10
2018,04,26,11,17,16.10
2018,04,26,11,18,16.10
2018,04,26,11,19,16.20
2018,04,26,11,20,16.20
2018,04,26,11,22,16.30
2018,04,26,11,23,16.30
2018,04,26,11,24,16.40
2018,04,26,11,25,16.50
2018,04,26,11,27,16.70
2018,04,26,11,28,16.70
2018,04,26,11,29,16.80
2018,04,26,11,30,16.90
2018,04,26,11,31,16.90
2018,04,26,11,32,16.90
2018,04,26,11,33,17.10
2018,04,26,11,34,17.10
2018,04,26,11,35,17.30
2018,04,26,11,36,17.30
2018,04,26,11,37,17.40
2018,04,26,11,38,17.50
2018,04,26,11,39,17.60
2018,04,26,11,40,17.70
2018,04,26,11,41,17.70
2018,04,26,11,42,17.80
2018,04,26,11,44,17.80
2018,04,26,11,45,17.90
2018,04,26,11,46,17.90
2018,04,26,11,47,17.90
2018,04,26,11,49,18.00
2018,04,26,11,50,18.00
2018,04,26,11,51,18.10
2018,04,26,11,52,18.10
2018,04,26,11,54,18.20
2018,04,26,11,55,18.30
2018,04,26,11,56,18.40
2018,04,26,11,57,18.40
2018,04,26,11,59,18.50
2018,04,26,12,00,18.50
2018,04,26,12,01,18.60
2018,04,26,12,02,18.60
2018,04,26,12,03,18.60
2018,04,26,12,04,18.60
2018,04,26,12,05,18.60
2018,04,26,12,06,18.60
2018,04,26,12,07,18.60
2018,04,26,12,08,18.60
2018,04,26,12,09,18.60
2018,04,26,12,10,18.60
2018,04,26,12,11,18.60
2018,04,26,12,12,18.60
2018,04,26,12,13,18.60
2018,04,26,12,14,18.60
2018,04,26,12,15,18.50
2018,04,26,12,16,18.50
2018,04,26,12,17,18.50
2018,04,26,12,18,18.50
2018,04,26,12,19,18.50
2018,04,26,12,21,18.50
2018,04,26,12,22,18.50
2018,04,26,12,23,18.60
2018,04,26,12,24,18.60
2018,04,26,12,26,18.70
2018,04,26,12,27,18.70
2018,04,26,12,28,18.70
2018,04,26,12,29,18.70
2018,04,26,12,31,18.70
2018,04,26,12,32,18.70
2018,04,26,12,33,18.70
2018,04,26,12,34,18.70
2018,04,26,12,35,18.80
2018,04,26,12,36,18.80
2018,04,26,12,37,18.80
2018,04,26,12,38,18.80
2018,04,26,12,39,18.80
2018,04,26,12,40,18.80
2018,04,26,12,41,18.80
2018,04,26,12,42,18.80
2018,04,26,12,43,18.80
2018,04,26,12,44,18.80
2018,04,26,12,45,18.80
2018,04,26,12,46,18.80
2018,04,26,12,47,18.80
2018,04,26,12,48,18.80
2018,04,26,12,49,18.90
2018,04,26,12,50,18.90
2018,04,26,12,51,18.90
2018,04,26,12,52,19.00
2018,04,26,12,53,19.00
2018,04,26,12,54,19.10
2018,04,26,12,55,19.10
2018,04,26,12,56,19.20
2018,04,26,12,57,19.20
2018,04,26,12,58,19.30
2018,04,26,12,59,19.30
2018,04,26,13,00,19.30
2018,04,26,13,01,19.30
2018,04,26,13,02,19.30
2018,04,26,13,03,19.30
2018,04,26,13,04,19.30
2018,04,26,13,05,19.40
2018,04,26,13,06,19.40
2018,04,26,13,07,19.30
2018,04,26,13,08,19.30
2018,04,26,13,09,19.30
2018,04,26,13,10,19.20
2018,04,26,13,11,19.20
2018,04,26,13,12,19.20
2018,04,26,13,13,19.10
2018,04,26,13,14,19.20
2018,04,26,13,15,19.20
2018,04,26,13,16,19.20
2018,04,26,13,17,19.20
2018,04,26,13,18,19.20
2018,04,26,13,19,19.20
2018,04,26,13,20,19.20
2018,04,26,13,21,19.20
2018,04,26,13,22,19.20
2018,04,26,13,23,19.20
2018,04,26,13,24,19.20
2018,04,26,13,25,19.10
2018,04,26,13,26,19.10
2018,04,26,13,27,19.00
2018,04,26,13,28,18.90
2018,04,26,13,29,18.90
2018,04,26,13,30,18.80
2018,04,26,13,31,18.70
2018,04,26,13,32,18.70
2018,04,26,13,33,18.70
2018,04,26,13,34,18.70
2018,04,26,13,35,18.70
2018,04,26,13,36,18.70
2018,04,26,13,37,18.70
2018,04,26,13,38,18.70
2018,04,26,13,39,18.70
2018,04,26,13,40,18.70
2018,04,26,13,41,18.70
2018,04,26,13,42,18.70
2018,04,26,13,43,18.80
2018,04,26,13,44,18.90
2018,04,26,13,45,18.90
2018,04,26,13,46,18.90
2018,04,26,13,47,19.00
2018,04,26,13,48,19.10
2018,04,26,13,49,19.10
2018,04,26,13,50,19.10
2018,04,26,13,51,19.10
2018,04,26,13,52,19.10
2018,04,26,13,53,19.10
2018,04,26,13,54,19.10
2018,04,26,13,55,19.10
2018,04,26,13,56,19.00
2018,04,26,13,57,19.00
2018,04,26,13,58,19.00
2018,04,26,13,59,19.00
2018,04,26,14,00,19.10
2018,04,26,14,01,19.10
2018,04,26,14,02,19.10
2018,04,26,14,03,19.10
2018,04,26,14,04,19.10
2018,04,26,14,05,19.10
2018,04,26,14,06,19.10
2018,04,26,14,07,19.00
2018,04,26,14,08,19.00
2018,04,26,14,09,18.90
2018,04,26,14,10,18.90
2018,04,26,14,11,18.90
2018,04,26,14,12,18.90
2018,04,26,14,13,19.00
2018,04,26,14,14,19.00
2018,04,26,14,16,19.00
2018,04,26,14,17,19.10
2018,04,26,14,18,19.10
2018,04,26,14,19,19.20
2018,04,26,14,21,19.30
2018,04,26,14,22,19.30
2018,04,26,14,23,19.40
2018,04,26,14,24,19.40
2018,04,26,14,26,19.60
2018,04,26,14,28,19.60
2018,04,26,14,29,19.60
2018,04,26,14,30,19.40
2018,04,26,14,31,19.40
2018,04,26,14,33,19.40
2018,04,26,14,34,19.40
2018,04,26,14,35,19.40
2018,04,26,14,36,19.40
2018,04,26,14,38,19.60
2018,04,26,14,39,19.60
2018,04,26,14,40,19.70
2018,04,26,14,41,19.70
2018,04,26,14,43,19.70
2018,04,26,14,44,19.70
2018,04,26,14,45,19.70
2018,04,26,14,46,19.70
2018,04,26,14,47,19.70
2018,04,26,14,48,19.70
2018,04,26,14,50,19.70
2018,04,26,14,51,19.70
2018,04,26,14,52,19.80
2018,04,26,14,53,19.80
2018,04,26,14,55,19.90
2018,04,26,14,56,20.00
2018,04,26,14,57,20.00
2018,04,26,14,58,20.00
2018,04,26,15,00,20.00
2018,04,26,15,02,19.90
2018,04,26,15,03,19.80
2018,04,26,15,04,19.80
2018,04,26,15,05,19.80
2018,04,26,15,07,19.70
2018,04,26,15,08,19.70
2018,04,26,15,09,19.70
2018,04,26,15,10,19.70
2018,04,26,15,11,19.70
2018,04,26,15,12,19.70
2018,04,26,15,14,19.70
2018,04,26,15,15,19.70
2018,04,26,15,16,19.70
2018,04,26,15,17,19.60
2018,04,26,15,19,19.60
2018,04,26,15,20,19.60
2018,04,26,15,21,19.60
2018,04,26,15,22,19.60
2018,04,26,15,24,19.60
2018,04,26,15,25,19.60
2018,04,26,15,26,19.60
2018,04,26,15,27,19.60
2018,04,26,15,29,19.60
2018,04,26,15,30,19.60
2018,04,26,15,31,19.60
2018,04,26,15,32,19.60
2018,04,26,15,33,19.60
2018,04,26,15,34,19.60
2018,04,26,15,36,19.40
2018,04,26,15,37,19.40
2018,04,26,15,38,19.40
2018,04,26,15,39,19.40
2018,04,26,15,40,19.40
2018,04,26,15,41,19.60
2018,04,26,15,43,19.60
2018,04,26,15,44,19.60
2018,04,26,15,45,19.60
2018,04,26,15,46,19.60
2018,04,26,15,48,19.60
2018,04,26,15,49,19.60
2018,04,26,15,50,19.70
2018,04,26,15,51,19.70
2018,04,26,15,53,19.70
2018,04,26,15,54,19.70
2018,04,26,15,55,19.80
2018,04,26,15,56,19.80
2018,04,26,15,57,19.90
2018,04,26,15,58,19.90
2018,04,26,15,59,19.90
2018,04,26,16,00,19.90
2018,04,26,16,01,19.90
2018,04,26,16,02,19.90
2018,04,26,16,03,19.90
2018,04,26,16,04,19.90
2018,04,26,16,05,19.90
2018,04,26,16,06,19.90
2018,04,26,16,07,19.90
2018,04,26,16,08,19.90
2018,04,26,16,09,20.00
2018,04,26,16,10,20.00
2018,04,26,16,11,20.00
2018,04,26,16,12,20.10
2018,04,26,16,13,20.10
2018,04,26,16,14,20.10
2018,04,26,16,15,20.10
2018,04,26,16,17,20.10
2018,04,26,16,18,20.10
2018,04,26,16,19,20.10
2018,04,26,16,20,20.10
2018,04,26,16,22,20.10
2018,04,26,16,23,20.10
2018,04,26,16,24,20.10
2018,04,26,16,25,20.10
2018,04,26,16,27,20.00
2018,04,26,16,28,20.00
2018,04,26,16,29,20.00
2018,04,26,16,30,20.00
2018,04,26,16,31,20.00
2018,04,26,16,32,20.00
2018,04,26,16,33,20.00
2018,04,26,16,34,20.00
2018,04,26,16,35,19.90
2018,04,26,16,36,19.90
2018,04,26,16,37,19.90
2018,04,26,16,39,19.90
2018,04,26,16,40,19.90
2018,04,26,16,41,19.90
2018,04,26,16,42,19.90
2018,04,26,16,43,19.90
2018,04,26,16,44,19.90
2018,04,26,16,46,19.90
2018,04,26,16,47,19.90
2018,04,26,16,48,19.90
2018,04,26,16,49,19.90
2018,04,26,16,51,19.90
2018,04,26,16,52,19.90
2018,04,26,16,53,19.90
2018,04,26,16,54,19.90
2018,04,26,16,55,19.90
2018,04,26,16,56,20.00
2018,04,26,16,57,20.00
2018,04,26,16,58,20.00
2018,04,26,16,59,20.10
2018,04,26,17,00,20.10
2018,04,26,17,01,20.10
2018,04,26,17,02,20.10
2018,04,26,17,03,20.10
2018,04,26,17,04,20.10
2018,04,26,17,05,20.10
2018,04,26,17,06,20.10
2018,04,26,17,07,20.10
2018,04,26,17,08,20.10
2018,04,26,17,09,20.10
2018,04,26,17,10,20.10
2018,04,26,17,11,20.10
2018,04,26,17,12,20.10
2018,04,26,17,13,20.10
2018,04,26,17,14,20.10
2018,04,26,17,15,20.10
2018,04,26,17,16,20.10
2018,04,26,17,17,20.10
2018,04,26,17,18,20.10
2018,04,26,17,19,20.10
2018,04,26,17,20,20.10
2018,04,26,17,21,20.10
2018,04,26,17,22,20.00
2018,04,26,17,23,20.00
2018,04,26,17,24,20.00
2018,04,26,17,25,19.90
2018,04,26,17,26,19.90
2018,04,26,17,27,19.90
2018,04,26,17,28,19.90
2018,04,26,17,29,19.80
2018,04,26,17,30,19.80
2018,04,26,17,31,19.80
2018,04,26,17,32,19.80
2018,04,26,17,33,19.80
2018,04,26,17,34,19.70
2018,04,26,17,35,19.70
2018,04,26,17,36,19.70
2018,04,26,17,37,19.70
2018,04,26,17,38,19.70
2018,04,26,17,39,19.70
2018,04,26,17,40,19.70
2018,04,26,17,41,19.60
2018,04,26,17,42,19.60
2018,04,26,17,43,19.60
2018,04,26,17,44,19.60
2018,04,26,17,45,19.60
2018,04,26,17,46,19.60
2018,04,26,17,47,19.60
2018,04,26,17,48,19.60
2018,04,26,17,49,19.60
2018,04,26,17,50,19.60
2018,04,26,17,51,19.60
2018,04,26,17,52,19.60
2018,04,26,17,53,19.60
2018,04,26,17,54,19.60
2018,04,26,17,55,19.60
2018,04,26,17,56,19.60
2018,04,26,17,57,19.60
2018,04,26,17,58,19.60
2018,04,26,17,59,19.60
2018,04,26,18,00,19.60
2018,04,26,18,01,19.60
2018,04,26,18,02,19.60
2018,04,26,18,03,19.60
2018,04,26,18,04,19.60
2018,04,26,18,05,19.60
2018,04,26,18,06,19.60
2018,04,26,18,07,19.60
2018,04,26,18,08,19.60
2018,04,26,18,09,19.60
2018,04,26,18,10,19.60
2018,04,26,18,11,19.60
2018,04,26,18,12,19.60
2018,04,26,18,13,19.60
2018,04,26,18,14,19.60
2018,04,26,18,15,19.60
2018,04,26,18,16,19.60
2018,04,26,18,17,19.60
2018,04,26,18,18,19.60
2018,04,26,18,19,19.60
2018,04,26,18,20,19.60
2018,04,26,18,21,19.60
2018,04,26,18,22,19.70
2018,04,26,18,23,19.70
2018,04,26,18,24,19.70
2018,04,26,18,25,19.70
2018,04,26,18,26,19.70
2018,04,26,18,27,19.70
2018,04,26,18,28,19.70
2018,04,26,18,29,19.70
2018,04,26,18,30,19.70
2018,04,26,18,31,19.70
2018,04,26,18,32,19.70
2018,04,26,18,33,19.80
2018,04,26,18,34,19.80
2018,04,26,18,35,19.80
2018,04,26,18,36,19.80
2018,04,26,18,37,19.90
2018,04,26,18,38,19.90
2018,04,26,18,39,19.90
2018,04,26,18,40,19.90
2018,04,26,18,41,19.90
2018,04,26,18,42,19.90
2018,04,26,18,43,19.90
2018,04,26,18,44,19.90
2018,04,26,18,45,19.90
2018,04,26,18,46,19.90
2018,04,26,18,47,19.90
2018,04,26,18,48,19.80
2018,04,26,18,49,19.80
2018,04,26,18,50,19.80
2018,04,26,18,51,19.80
2018,04,26,18,52,19.80
2018,04,26,18,53,19.70
2018,04,26,18,55,19.70
2018,04,26,18,56,19.70
2018,04,26,18,57,19.70
2018,04,26,18,58,19.70
2018,04,26,18,59,19.70
2018,04,26,19,00,19.70
2018,04,26,19,02,19.60
2018,04,26,19,04,19.60
2018,04,26,19,05,19.60
2018,04,26,19,07,19.60